Simultaneous Nadir Overpasses (SNOs) Predictions

Prediction of SNOs over PacNW region [( 10.00, 139.50) to ( 22.70, 165.60)] between AQUA and NPP Satellites:

Table of predicted SNOs over PacNW region for the next 30.0 days since TLE Epoch: 1/25/2014
Index Date (AQUA) Time (AQUA) AQUA Lat,Lon Date (NPP) Time (NPP) NPP Lat,Lon Distance(km) Time Diff (sec)
1 01/27/2014 03:30:51 17.63, 148.64 01/27/2014 03:28:45 17.26, 147.03 175.65 126
2 02/04/2014 02:42:30 21.56, 160.10 02/04/2014 02:39:19 21.27, 158.74 144.94 191
3 02/09/2014 15:10:21 22.62, 159.84 02/09/2014 15:13:50 24.87, 157.64 335.43 209
4 02/12/2014 03:30:21 16.14, 149.02 02/12/2014 03:28:40 15.78, 147.38 180.36 101
5 02/20/2014 02:41:37 19.42, 160.70 02/20/2014 02:39:01 19.13, 159.27 153.85 156




NCC Satellite Simultaneous Nadir Overpasses (SNOs) Prediction Service
